Regional Weather Roundup
Issued by NWS

Home | Current Version | Previous Version | Graphics & Text | Print | Product List | Glossary On
Versions: 1 2 3 4 5 6 7 8 9 10 11 12 13 14 15 16 17 18 19 20 21 22 23 24 25 26 27 28 29 30 31 32 33 34 35 36 37 38 39 40 41 42 43 44 45 46 47 48 49 50
000
ASUS43 KTOP 250708
RWRKS

WEATHER ROUNDUP FOR KANSAS
NATIONAL WEATHER SERVICE GOODLAND KS
200 AM CDT SAT MAR 25 2017

NOTE:  "FAIR" INDICATES FEW OR NO CLOUDS BELOW 12,000 FEET WITH NO
SIGNIFICANT WEATHER AND/OR OBSTRUCTIONS TO VISIBILITY.

KSZ001>006-013>018-027>032-041>047-250800-
NORTHWEST KANSAS

CITY           SKY/WX    TMP DP  RH WIND       PRES   REMARKS
GOODLAND       CLEAR     34  33  96 NW10      30.06F WCI  26
HAYS             N/A     41  39  93 N15       30.00R
HILL CITY      CLOUDY    43  40  89 N12       30.04R
RUSSELL        CLOUDY    40  39  97 N16       29.97S WCI  31
$$

KSZ061>065-074>080-084>089-250800-
SOUTHWEST KANSAS

CITY           SKY/WX    TMP DP  RH WIND       PRES   REMARKS
DODGE CITY     CLOUDY    41  39  93 N18       30.00R
ELKHART          N/A     37  27  67 NW12        N/A  WCI  29
GARDEN CITY    CLOUDY    42  39  89 N18       30.03R
GREAT BEND     LGT RAIN  41  39  93 N20       29.97S
LIBERAL        CLOUDY    45  36  70 NW17      30.05S
PRATT          CLOUDY    39  37  93 N23G30    29.95R FOG     WCI  28
$$

KSZ066>073-081>083-090>101-250800-
SOUTHEAST KANSAS

CITY           SKY/WX    TMP DP  RH WIND       PRES   REMARKS
CHANUTE        CLOUDY    53  51  93 NE5       29.78S
COFFEYVILLE    RAIN      53  51  93 SW9       29.82R
HUTCHINSON     LGT RAIN  43  40  89 NW16      29.90F
MEDICINE LODGE   N/A     43  39  86 N25G32    29.90S
NEWTON         LGT RAIN  43  42  97 N23       29.86F
PARSONS        LGT RAIN  53  51  93 VRB3      29.80R
WICHITA INTL   CLOUDY    46  45  96 N21       29.85R
WICHITA JABRA  CLOUDY    45  44  97 N22       29.84S
WICHITA MCCONL CLOUDY    45  43  93 N21G26    29.84R
WINFIELD       CLOUDY    51  47  86 N13       29.84R
$$

KSZ007>012-019>026-033>040-048>060-102>105-250800-
NORTHEAST KANSAS

CITY           SKY/WX    TMP DP  RH WIND       PRES   REMARKS
CONCORDIA      CLOUDY    42  40  92 N13G23    29.93R
EMPORIA        LGT RAIN  47  47 100 N16       29.81F
LAWRENCE       CLOUDY    52  50  93 W8        29.79R
MANHATTAN      CLOUDY    45  42  89 N8        29.86F
MARYSVILLE     CLOUDY    43  39  87 N16G23    29.87F
OLATHE IND     CLOUDY    54  53  97 SW3       29.77F
OLATHE EXE     CLOUDY    56  56 100 CALM      29.76F
SALINA         LGT RAIN  45  42  89 NW15      29.92S
TOPEKA BILLARD CLOUDY    48  48 100 N12       29.81F
TOPEKA FORBES  CLOUDY    50  47  89 N12       29.81R
$$



USA.gov is the U.S. government's official web portal to all federal, state and local government web resources and services.